NOAA 16 DEB, 41539

Orbit data source: Space-Track

NOAA 16 DEB, 41539 is space debris in SSO originally from a launch on Thu, 21 Sep 2000 UTC launched from the Air Force Western Test Range (AFWTR). Debris objects in space refer to the collection of defunct objects orbiting the Earth. Examples of debris include non-operational satellites, rocket bodies, and fragments generated from explosions, collisions, or faulty payload assembly.

Loading next visibility...
Identifier
41539, 2000-055NP
Orbit
SSO
Country
Flag of USUS
Related business
Manufacturer
Unknown
Mission
Spacecraft
Bus & Motor
Unknown
Mass
Unknown
Launch date (UTC)
2000-09-21 (26 years ago)
Launch vehicle
Unknown
Launch site
Air Force Western Test Range (AFWTR)
Object type
Payload
Rocket body
Debris
Shape & HBR
Unknown shape, 0.1 m
Radar Cross Section
Small (<0.1 m²)

Expand to show TLE details & history
Last TLE update: 1 day ago

TLE from 1 day ago
0 NOAA 16 DEB
1 41539U 00055NP  26125.83142188  .00009114  00000-0  22899-2 0  9990
2 41539  98.8244 267.0629 0018576 217.2622 142.7283 14.51390342532425
Epoch: 2026-05-05T19:57Z
TLE epoch observation values (Epoch: 2026-05-05T19:57:14.850Z)
Latitude
-0.00008°
Longitude
104.05042°
Altitude
734.57 km
Speed
7.482 km/s
True Right ascension
17h 48m 15s
True Declination
0° 00' 00"
Sunlit
Object was in full shadow at epoch
Visualization orbit readout
Latitude
Unknown
Longitude
Unknown
Altitude
Unknown
Speed
Unknown
Apparent Right ascension
Unknown
Apparent Declination
Unknown
Sunlit
N/A
Visualization observer readout
Local Sidereal Time
15:44:36
Azimuth
Unknown
Elevation
Unknown
Doppler factor
Unknown
Orbital elements
Apogee altitude
731.416 km
Perigee altitude
705.051 km
Semi-major axis
7,096.37 km
Eccentricity
0.00186
Inclination
98.8244°
RAAN
267.0629°
Arg. of periapsis
217.2622°
True anomaly
142.85697°
Mean anomaly
142.7283°
Eccentric anomaly
142.79266°
Mean motion
3.63069 °/min
Orbital period
99.15 mins
BSTAR
0.0022899
Loading maneuver chart data...
Computing Atmospheric mass density...

Documentation

Showing up to 5 results
|